3DDIA FAPM-FALY

Flight info

Callsign 3DDIA
Flight time 0h 28m
Altitude 8000
Route PMV G853 LYV
Aircraft DA62/L-SDFGRY/C

Departure

Time 2026-05-04 12:46
Airport Pietermaritzburg Airport (FAPM)

Arrival

Time 2026-05-04 13:14
Airport Ladysmith Airport (FALY)
Time Latitude Longitude Altitude Speed Heading
2026-05-04 12:37 -29.64412 30.39645 2372 ft 0 kts 338°
2026-05-04 12:40 -29.64417 30.39659 2372 ft 2 kts 236°
2026-05-04 12:40 -29.64415 30.39662 2372 ft 0 kts 221°
2026-05-04 12:41 -29.64417 30.39661 2372 ft 1 kts 213°
2026-05-04 12:41 -29.64426 30.39630 2371 ft 6 kts 278°
2026-05-04 12:41 -29.64444 30.39600 2372 ft 5 kts 210°
2026-05-04 12:41 -29.64478 30.39586 2372 ft 6 kts 191°
2026-05-04 12:42 -29.64513 30.39581 2375 ft 5 kts 180°
2026-05-04 12:42 -29.64546 30.39584 2376 ft 5 kts 168°
2026-05-04 12:42 -29.64599 30.39620 2377 ft 13 kts 142°
2026-05-04 12:42 -29.64689 30.39699 2377 ft 19 kts 142°
2026-05-04 12:43 -29.64804 30.39802 2375 ft 22 kts 146°
2026-05-04 12:43 -29.64935 30.39918 2381 ft 25 kts 142°
2026-05-04 12:43 -29.65077 30.40043 2380 ft 26 kts 141°
2026-05-04 12:43 -29.65227 30.40178 2374 ft 28 kts 147°
2026-05-04 12:44 -29.65365 30.40300 2372 ft 13 kts 137°
2026-05-04 12:44 -29.65391 30.40367 2372 ft 9 kts 171°
2026-05-04 12:44 -29.65393 30.40325 2372 ft 7 kts 324°
2026-05-04 12:44 -29.65383 30.40315 2372 ft 0 kts 321°
2026-05-04 12:45 -29.65326 30.40265 2373 ft 29 kts 323°
2026-05-04 12:45 -29.65027 30.39995 2380 ft 78 kts 323°
2026-05-04 12:45 -29.64545 30.39538 2480 ft 97 kts 327°
2026-05-04 12:46 -29.64014 30.39024 2675 ft 105 kts 319°
2026-05-04 12:46 -29.63407 30.38553 2911 ft 105 kts
2026-05-04 12:46 -29.62680 30.38475 3084 ft 110 kts 336°
2026-05-04 12:46 -29.61997 30.38060 3351 ft 112 kts 337°
2026-05-04 12:47 -29.61317 30.37635 3634 ft 110 kts 335°
2026-05-04 12:47 -29.60643 30.37192 3941 ft 113 kts 335°
2026-05-04 12:47 -29.59965 30.36735 4254 ft 112 kts 335°
2026-05-04 12:47 -29.59286 30.36274 4505 ft 114 kts 335°
2026-05-04 12:48 -29.58605 30.35813 4800 ft 114 kts 333°
2026-05-04 12:48 -29.57927 30.35348 5134 ft 112 kts 332°
2026-05-04 12:48 -29.57258 30.34892 5454 ft 112 kts 332°
2026-05-04 12:48 -29.56591 30.34437 5741 ft 114 kts 330°
2026-05-04 12:49 -29.55918 30.33976 6048 ft 111 kts 330°
2026-05-04 12:49 -29.55245 30.33516 6391 ft 113 kts 332°
2026-05-04 12:49 -29.54575 30.33058 6769 ft 110 kts 330°
2026-05-04 12:49 -29.53915 30.32609 7078 ft 112 kts 330°
2026-05-04 12:50 -29.53237 30.32145 7410 ft 115 kts 330°
2026-05-04 12:50 -29.52559 30.31684 7766 ft 112 kts 329°
2026-05-04 12:50 -29.51868 30.31210 8017 ft 121 kts 328°
2026-05-04 12:50 -29.51069 30.30666 8033 ft 146 kts 328°
2026-05-04 12:51 -29.50147 30.30036 8037 ft 162 kts 329°
2026-05-04 12:51 -29.49142 30.29352 8031 ft 173 kts 329°
2026-05-04 12:51 -29.48094 30.28637 8031 ft 177 kts 328°
2026-05-04 12:51 -29.47027 30.27908 8039 ft 180 kts 329°
2026-05-04 12:52 -29.45950 30.27174 8044 ft 181 kts 329°
2026-05-04 12:52 -29.44863 30.26434 8045 ft 182 kts 329°
2026-05-04 12:52 -29.43763 30.25685 8037 ft 185 kts 329°
2026-05-04 12:52 -29.42654 30.24928 8032 ft 185 kts 328°
2026-05-04 12:53 -29.41546 30.24173 8034 ft 185 kts 329°
2026-05-04 12:53 -29.40441 30.23421 8037 ft 185 kts 329°
2026-05-04 12:53 -29.39328 30.22664 8038 ft 187 kts 329°
2026-05-04 12:53 -29.38203 30.21899 8040 ft 189 kts 329°
2026-05-04 12:54 -29.37071 30.21128 8040 ft 189 kts 328°
2026-05-04 12:54 -29.35947 30.20363 8041 ft 188 kts 329°
2026-05-04 12:54 -29.34821 30.19598 8045 ft 187 kts 329°
2026-05-04 12:54 -29.33710 30.18842 8046 ft 186 kts 329°
2026-05-04 12:55 -29.32594 30.18085 8053 ft 187 kts 329°
2026-05-04 12:55 -29.31470 30.17320 8044 ft 188 kts 329°
2026-05-04 12:55 -29.30342 30.16553 8058 ft 189 kts 329°
2026-05-04 12:55 -29.29217 30.15790 8055 ft 186 kts 329°
2026-05-04 12:56 -29.28089 30.15024 8012 ft 190 kts 329°
2026-05-04 12:56 -29.27331 30.14510 8001 ft 192 kts 329°
2026-05-04 12:56 -29.26184 30.13732 8000 ft 191 kts 329°
2026-05-04 12:56 -29.25046 30.12958 8004 ft 191 kts 329°
2026-05-04 12:57 -29.23526 30.11928 7998 ft 194 kts 328°
2026-05-04 12:57 -29.22367 30.11139 8006 ft 194 kts 328°
2026-05-04 12:57 -29.21219 30.10363 8019 ft 189 kts 327°
2026-05-04 12:57 -29.20074 30.09589 8000 ft 191 kts 328°
2026-05-04 12:58 -29.18931 30.08814 8003 ft 192 kts 328°
2026-05-04 12:58 -29.18158 30.08291 7999 ft 190 kts 327°
2026-05-04 12:58 -29.17018 30.07517 8002 ft 191 kts 328°
2026-05-04 12:58 -29.15866 30.06737 7998 ft 193 kts 327°
2026-05-04 12:59 -29.14712 30.05956 8001 ft 193 kts 327°
2026-05-04 12:59 -29.13560 30.05177 8007 ft 192 kts 327°
2026-05-04 12:59 -29.12419 30.04405 8012 ft 190 kts 328°
2026-05-04 12:59 -29.11281 30.03635 8008 ft 190 kts 327°
2026-05-04 13:00 -29.10139 30.02863 8003 ft 190 kts 328°
2026-05-04 13:00 -29.09010 30.02099 8009 ft 188 kts 328°
2026-05-04 13:00 -29.07889 30.01343 8009 ft 191 kts 328°
2026-05-04 13:00 -29.06748 30.00573 8005 ft 190 kts 327°
2026-05-04 13:01 -29.05622 29.99811 8005 ft 188 kts 327°
2026-05-04 13:01 -29.04493 29.99048 8005 ft 189 kts 329°
2026-05-04 13:01 -29.03364 29.98287 8006 ft 188 kts 328°
2026-05-04 13:01 -29.02234 29.97523 8001 ft 189 kts 328°
2026-05-04 13:02 -29.01107 29.96764 8001 ft 187 kts 327°
2026-05-04 13:02 -28.99992 29.96010 7992 ft 187 kts 327°
2026-05-04 13:02 -28.98869 29.95254 7993 ft 188 kts 327°
2026-05-04 13:02 -28.97744 29.94495 7991 ft 188 kts 327°
2026-05-04 13:03 -28.96621 29.93738 8005 ft 187 kts 327°
2026-05-04 13:03 -28.95498 29.92981 8004 ft 188 kts 327°
2026-05-04 13:03 -28.94377 29.92226 8002 ft 187 kts 327°
2026-05-04 13:03 -28.93265 29.91478 8001 ft 184 kts 327°
2026-05-04 13:04 -28.92163 29.90734 7998 ft 184 kts 327°
2026-05-04 13:04 -28.91064 29.89995 7991 ft 183 kts 327°
2026-05-04 13:04 -28.89968 29.89257 8000 ft 183 kts 327°
2026-05-04 13:04 -28.88865 29.88516 8001 ft 185 kts 327°
2026-05-04 13:05 -28.87751 29.87766 7996 ft 186 kts 327°
2026-05-04 13:05 -28.86636 29.87016 7994 ft 186 kts 327°
2026-05-04 13:05 -28.85524 29.86268 7995 ft 185 kts 327°
2026-05-04 13:05 -28.84417 29.85524 7995 ft 184 kts 327°
2026-05-04 13:06 -28.83313 29.84782 7995 ft 184 kts 327°
2026-05-04 13:06 -28.82212 29.84042 8033 ft 182 kts 327°
2026-05-04 13:06 -28.81129 29.83315 8123 ft 180 kts 326°
2026-05-04 13:06 -28.80042 29.82584 8143 ft 183 kts 327°
2026-05-04 13:07 -28.78934 29.81841 8141 ft 185 kts 326°
2026-05-04 13:07 -28.77827 29.81099 8135 ft 184 kts 325°
2026-05-04 13:07 -28.76729 29.80364 8137 ft 183 kts 325°
2026-05-04 13:07 -28.75634 29.79630 8139 ft 183 kts 325°
2026-05-04 13:08 -28.74538 29.78891 8138 ft 183 kts 325°
2026-05-04 13:08 -28.73445 29.78148 8139 ft 182 kts 325°
2026-05-04 13:08 -28.72360 29.77421 8132 ft 179 kts 324°
2026-05-04 13:08 -28.71313 29.76727 7951 ft 171 kts 325°
2026-05-04 13:09 -28.70303 29.76077 7791 ft 159 kts 325°
2026-05-04 13:09 -28.69381 29.75466 7649 ft 150 kts 325°
2026-05-04 13:09 -28.68514 29.74903 7640 ft 138 kts 325°
2026-05-04 13:09 -28.67700 29.74394 7634 ft 129 kts 326°
2026-05-04 13:10 -28.66940 29.73917 7637 ft 121 kts 324°
2026-05-04 13:10 -28.66216 29.73469 7638 ft 117 kts 323°
2026-05-04 13:10 -28.65473 29.73012 7654 ft 126 kts 325°
2026-05-04 13:10 -28.64680 29.72526 7662 ft 134 kts 326°
2026-05-04 13:11 -28.63853 29.71977 7659 ft 141 kts 324°
2026-05-04 13:11 -28.62988 29.71401 7657 ft 146 kts 326°
2026-05-04 13:11 -28.62107 29.70804 7668 ft 148 kts 325°
2026-05-04 13:11 -28.61212 29.70210 7662 ft 149 kts 324°
2026-05-04 13:12 -28.60312 29.69636 7599 ft 151 kts 324°
2026-05-04 13:12 -28.59418 29.68975 7395 ft 152 kts 321°
2026-05-04 13:12 -28.58525 29.68335 7052 ft 155 kts 330°
2026-05-04 13:12 -28.57448 29.68282 6816 ft 165 kts 17°
2026-05-04 13:13 -28.56785 29.69309 6504 ft 171 kts 74°
2026-05-04 13:13 -28.56939 29.70581 5939 ft 148 kts 116°
2026-05-04 13:13 -28.57520 29.71428 5280 ft 128 kts 137°
2026-05-04 13:13 -28.58092 29.72182 4681 ft 127 kts 122°
2026-05-04 13:14 -28.58297 29.73144 4069 ft 125 kts 82°
2026-05-04 13:14 -28.58196 29.74051 3683 ft 110 kts 73°
2026-05-04 13:14 -28.58135 29.74869 3521 ft 81 kts 84°
2026-05-04 13:14 -28.58127 29.75225 3541 ft 21 kts 88°
2026-05-04 13:15 -28.58121 29.75383 3550 ft 20 kts 88°
2026-05-04 13:15 -28.58114 29.75543 3559 ft 18 kts 87°
2026-05-04 13:15 -28.58093 29.75627 3563 ft 7 kts 323°
2026-05-04 13:15 -28.58049 29.75565 3558 ft 16 kts 307°
2026-05-04 13:16 -28.57988 29.75474 3553 ft 13 kts 307°
2026-05-04 13:16 -28.57920 29.75375 3549 ft 18 kts 309°
2026-05-04 13:16 -28.57834 29.75251 3543 ft 20 kts 307°
2026-05-04 13:16 -28.57751 29.75131 3537 ft 18 kts 321°
2026-05-04 13:17 -28.57646 29.75101 3536 ft 16 kts 349°
2026-05-04 13:17 -28.57538 29.75077 3535 ft 16 kts 346°
2026-05-04 13:17 -28.57463 29.75020 3533 ft 2 kts 339°